Tracking 29892 objects as of 21-Nov-2024
HD Live streaming from Space Station
objects crossing your sky now

IT'S ABOUT TIME

Track IT'S ABOUT TIME now!
10-day predictions
IT'S ABOUT TIME is classified as:


NORAD ID: 56189
Int'l Code: 2023-054M
Perigee: 430.4 km
Apogee: 437.6 km
Inclination: 97.3 °
Period: 93.1 minutes
Semi major axis: 6804 km
RCS: Unknown
Launch date: April 15, 2023
Source: United States (US)
Launch site: AIR FORCE WESTERN TEST RANGE (AFWTR)

Uplink (MHz):
Downlink (MHz): 2254.000
Beacon (MHz):
Mode: FM
Call sign:
Status: Unknown

Your satellite tracking list
Your tracking list is empty




NASA's NSSDC Master Catalog

Two Line Element Set (TLE):
1 56189U 23054M   24325.65565198  .00050050  00000-0  10035-2 0  9995
2 56189  97.3465 222.7266 0005268 358.4292   1.6940 15.46541893 90113
Source of the keplerian elements: AFSPC